Lid_Strength_Index
1 1 1 2 2 2 2 2 2 2 2 2 2 2 2 1 2 7 10 5 5 -1 1 7 8 9 9 10 9 9 11 12 11 11 9 7 8 7 5 6 5 4 5 3 2
2 2 2 2 2 2 2 2 2 2 2 2 2 2 2 1 5 9 3 -1 -1 -1 8 9 10 9 11 11 9 10 13 12 8 8 8 7 8 7 7 6 6 5 4 2 2
3 3 2 2 2 2 2 2 2 2 2 2 2 2 2 2 9 7 -3 -3 -2 -2 8 8 9 10 13 12 11 11 11 10 8 6 7 7 7 6 7 9 6 6 5 3 3
3 3 3 2 2 3 2 2 2 2 2 2 2 2 2 5 11 6 -4 -4 -2 6 8 9 10 12 13 13 11 12 9 8 7 6 7 7 6 7 7 7 4 4 3 3 4
4 4 4 3 2 3 3 2 2 3 3 3 2 2 5 10 8 3 -3 -3 7 8 9 9 9 11 12 11 11 11 10 8 7 7 6 6 7 7 7 5 4 3 4 4 4
4 4 4 4 3 3 3 3 3 3 3 2 2 1 8 11 6 2 4 6 9 9 8 8 8 8 10 10 11 9 8 9 7 8 7 7 7 7 6 4 4 4 4 4 4
5 5 5 4 3 3 3 3 3 3 2 2 1 3 8 9 5 4 6 9 8 8 8 7 7 8 9 10 9 9 10 9 8 8 8 6 8 8 6 4 5 5 5 4 4
5 5 5 5 3 3 3 3 3 3 2 2 1 6 10 6 4 5 6 6 6 7 7 7 7 8 10 9 9 10 10 12 10 7 8 9 11 8 6 5 6 6 5 5 4
5 5 5 4 3 3 3 3 3 2 2 2 6 8 8 3 4 4 5 6 6 6 6 5 7 9 9 11 11 11 13 12 9 7 7 8 11 8 6 6 7 6 6 5 5
5 5 5 5 3 3 4 4 3 3 4 3 4 9 7 6 4 5 6 6 6 6 6 7 9 10 11 12 14 13 13 11 11 10 9 11 10 7 6 7 7 7 6 6 5
4 5 5 5 4 4 6 10 10 9 10 9 8 7 5 3 4 6 5 6 6 7 10 9 11 12 11 11 10 11 11 11 10 9 9 10 10 8 7 7 7 7 7 6 6
5 5 5 5 3 4 7 11 8 8 11 7 8 6 5 4 7 6 5 7 8 10 9 10 12 9 9 9 10 10 11 12 10 8 9 10 10 9 7 8 7 7 7 6 6
5 5 5 5 4 7 10 9 8 9 11 6 7 7 7 5 6 6 6 7 9 10 11 11 9 8 9 9 10 12 11 12 11 10 10 10 11 10 7 7 6 6 6 5 6
6 6 6 5 8 10 9 7 8 8 10 8 7 6 6 6 6 5 5 7 9 11 10 11 9 9 10 10 10 11 9 9 10 12 14 10 15 11 10 9 8 7 7 6 6
6 6 6 7 8 8 8 8 9 7 16 7 6 5 6 7 7 5 4 6 9 9 10 10 10 10 9 9 9 10 8 9 10 12 12 11 13 12 10 10 10 8 7 6 5
6 6 6 8 9 7 6 8 7 11 14 9 6 8 9 8 7 6 6 6 7 9 9 10 8 8 9 7 7 7 9 11 12 13 16 13 13 13 12 11 10 8 7 6 6
6 6 7 7 11 7 8 6 12 14 8 10 9 9 9 9 8 7 8 10 11 13 13 9 9 7 7 9 8 9 12 15 16 17 17 12 13 13 9 8 8 8 7 6 5
6 7 7 5 6 7 6 8 15 10 9 7 9 9 10 9 9 8 9 10 9 10 11 12 13 9 6 9 10 11 12 15 19 18 16 12 16 13 8 8 7 7 7 6 6
7 9 9 5 4 7 7 13 13 10 7 8 9 11 11 9 9 9 10 10 9 9 11 12 12 7 7 7 8 10 13 11 14 15 16 15 13 9 8 8 7 7 6 6 6
8 8 6 5 5 5 9 12 10 7 6 7 10 10 12 11 10 11 11 8 8 7 8 9 13 9 8 7 7 9 8 13 13 17 19 15 15 14 11 10 8 8 8 6 6
6 8 4 4 3 7 11 11 8 6 6 7 9 9 9 10 10 11 10 7 6 7 8 9 11 11 9 10 12 11 12 11 13 14 17 18 16 11 10 10 9 8 7 7 7
6 10 4 4 7 10 11 9 8 7 6 7 8 8 9 9 10 10 9 8 6 6 9 9 11 14 12 9 8 9 11 12 15 15 14 15 16 9 9 9 8 7 7 6 7
9 7 3 4 10 12 10 8 7 7 7 7 7 7 7 9 11 9 8 6 6 7 9 9 12 15 13 11 9 12 11 11 12 13 15 17 16 8 8 8 7 8 7 6 7
7 9 6 7 8 11 11 10 9 7 7 7 8 7 8 9 9 10 9 7 6 6 6 7 12 12 14 12 11 12 11 10 12 15 15 15 14 11 9 9 8 7 7 8 8
7 8 6 10 10 11 10 9 10 9 8 8 9 8 9 11 10 11 9 8 7 6 8 10 12 12 11 10 10 11 11 11 12 12 14 13 12 11 9 8 8 7 7 8 8
9 9 8 7 7 10 10 10 8 7 8 9 10 8 8 11 10 10 9 10 10 8 10 9 13 12 12 10 10 11 10 10 10 11 11 11 12 9 8 8 7 7 7 8 7
8 7 7 8 8 10 9 8 8 7 7 6 8 8 9 8 7 8 8 8 8 9 10 10 11 13 15 11 11 14 12 10 10 10 11 13 10 8 9 8 8 8 7 8 7